Regional Weather Roundup
Issued by NWS Newport/Morehead, NC

Current Version | Previous Version | Graphics & Text | Print | Product List | Glossary Off
Versions: 1 2 3 4 5 6 7 8 9 10 11 12 13 14 15 16 17 18 19 20 21 22 23 24 25 26 27 28 29 30 31 32 33 34 35 36 37 38 39 40 41 42 43 44 45 46 47 48 49 50

000
ASUS42 KMHX 232012
RWRMHX
WEATHER ROUNDUP FOR EASTERN NORTH CAROLINA
NATIONAL WEATHER SERVICE NEWPORT/MOREHEAD CITY NC
400 PM EDT SAT MAY 23 2015

NOTE: "FAIR" INDICATES FEW OR NO CLOUDS BELOW 12,000 FEET
WITH NO SIGNIFICANT WEATHER AND/OR OBSTRUCTIONS TO VISIBILITY

NCZ015>017-031-032-045>047-102-103-232100-
NORTH COAST

CITY           SKY/WX    TMP DP  RH WIND       PRES   REMARKS
EDENTON        SUNNY     72  51  47 SE12      30.42F
ELIZABETH CITY SUNNY     70  48  45 NE9       30.42F
KITTY HAWK     CLEAR     64  51  61 NE8       30.42F
MANTEO         SUNNY     66  52  60 NE13      30.43F

$$

NCZ045>047-081-094-103-104-232100-
CENTRAL COAST

CITY           SKY/WX    TMP DP  RH WIND       PRES   REMARKS
FRISCO         SUNNY     70  43  37 NE10      30.42S
SWANQUARTER      N/A     75 N/A N/A E8G14     30.36F

$$

NCZ095-097-098-100-101-232100-
SOUTHERN COAST

CITY           SKY/WX    TMP DP  RH WIND       PRES   REMARKS
BEAUFORT       SUNNY     75  58  55 E9        30.39F
CEDAR ISLAND     N/A     73 N/A N/A NE13      30.44F
JACKSONVILLE   SUNNY     79  48  33 SE10      30.37F
PINEY ISLAND   CLEAR    N/A N/A N/A NE15      30.40F
WILMINGTON     SUNNY     78  46  32 E9G18     30.38F


$$

NCZ011>013-027>030-043-044-078>080-089-090>093-098-232100-
COASTAL PLAIN

CITY           SKY/WX    TMP DP  RH WIND       PRES   REMARKS
AHOSKIE        SUNNY     74  47  38 CALM      30.40F
CLINTON        SUNNY     80  50  34 CALM      30.38F
ELIZABETHTOWN  SUNNY     80  46  30 CALM      30.37F
GOLDSBORO      MOSUNNY   81  47  31 VRB5      30.35
GREENVILLE     SUNNY     79  50  36 CALM      30.39F
HAVELOCK       SUNNY     77  57  50 NE15      30.39F
KENANSVILLE    SUNNY     79  44  28 SW3       30.38F
KINSTON        MOSUNNY   81  48  32 N3        30.39F
NEW BERN       MOSUNNY   77  56  48 E16       30.40S
RICHLANDS      SUNNY     81  45  28 CALM      30.37F
ROCKY MOUNT    SUNNY     79  48  33 CALM      30.39F
WASHINGTON     SUNNY     76  47  35 E5        30.40F
WHITEVILLE     SUNNY     81  42  25 E8        30.36F

$$

AMZ130-135-150-152-154-156-158-170-250-252-270-ANZ085-086-088-633-658-670-232100-
MARINE OBSERVATIONS

STATION/POSITION TIME  TEMP    WIND        PRES    WAVE   SWELL
                       AIR SEA DIR/SP/G            HT/PER HT/PER
                 (UTC) (F)     (DEG/KT/KT) (MB)    (FT/S) (FT/S)
CHESAPEAKE LIGHT 1900   59      70/  8/  8 1031.6
64 E VA BEACH    1950   61 61   10/ 12/ 14 1030.1    2/ 4   2/ 8
DUCK             1900   61 65   30/ 12/ 14 1029.9
2 E DUCK         1911      63                N/A     2/ 8
OREGON INLET     1900   63 70   20/ 11/ 14 1030.5
13E OREGON INLT  2000      62                N/A     3/ 8
HATTERAS CG      1900   69 72   40/ 11/ 15 1029.7
DIAMOND BUOY     1950   68 78   30/ 14/ 16 1029.5    3/ 9   2/ 9
CAPE LOOKOUT     2000   70      70/ 15/ 17 1029.0
BEAUFORT LAB     1900   74 74   90/  8/ 16 1028.6
27 SE WRIGHTSVLE 1900   70 77   60/ 12/ 14   N/A
5 SE WRIGHTSVLE  1908   74 76   90/ 10/ 16 1029.4
225 S CAPE HAT   1950   72 75   70/ 19/ 23 1026.7    6/ 5
41 SE CHARLESTON 1950   75 75   80/ 16/ 19 1026.9    4/ 5   2/ 8

$$


USA.gov is the U.S. government's official web portal to all federal, state and local government web resources and services.